| time (UTC) | temp C | wind direction | speed KPH | gust KPH | rain 1hr cm | rain 24hr cm | rain mn cm | humidity % | barometer mb |
| 20260510192603 | 12 | 51 | 6.4 | 22.5 | 0.00 | 0.00 | 0.00 | 59 | 1013.4 |
| 20260510192036 | 12 | 76 | 8.0 | 22.5 | 0.00 | 0.00 | 0.00 | 59 | 1013.3 |
| 20260510191546 | 13 | 28 | 6.4 | 19.3 | 0.00 | 0.00 | 0.00 | 59 | 1013.4 |
| 20260510191038 | 13 | 26 | 6.4 | 17.7 | 0.00 | 0.00 | 0.00 | 59 | 1013.4 |
| 20260510190536 | 13 | 17 | 8.0 | 17.7 | 0.00 | 0.00 | 0.00 | 59 | 1013.4 |
| 20260510190054 | 13 | 5 | 8.0 | 24.1 | 0.00 | 0.00 | 0.00 | 59 | 1013.4 |
| 20260510185536 | 13 | 22 | 9.7 | 27.4 | 0.00 | 0.00 | 0.00 | 59 | 1013.3 |
| 20260510185036 | 13 | 61 | 14.5 | 27.4 | 0.00 | 0.00 | 0.00 | 58 | 1013.4 |
| 20260510184559 | 13 | 26 | 9.7 | 29.0 | 0.00 | 0.00 | 0.00 | 58 | 1013.4 |
| 20260510184036 | 13 | 70 | 11.3 | 29.0 | 0.00 | 0.00 | 0.00 | 58 | 1013.3 |
| 20260510183539 | 13 | 56 | 11.3 | 24.1 | 0.00 | 0.00 | 0.00 | 57 | 1013.4 |
| 20260510183046 | 13 | 360 | 11.3 | 24.1 | 0.00 | 0.00 | 0.00 | 58 | 1013.4 |
| 20260510182553 | 13 | 45 | 6.4 | 20.9 | 0.00 | 0.00 | 0.00 | 58 | 1013.4 |
| 20260510182037 | 13 | 59 | 9.7 | 20.9 | 0.00 | 0.00 | 0.00 | 59 | 1013.3 |
| 20260510181546 | 13 | 75 | 8.0 | 19.3 | 0.00 | 0.00 | 0.00 | 60 | 1013.4 |
| 20260510181038 | 13 | 32 | 9.7 | 22.5 | 0.00 | 0.00 | 0.00 | 60 | 1013.4 |
| 20260510180537 | 13 | 80 | 11.3 | 22.5 | 0.00 | 0.00 | 0.00 | 60 | 1013.5 |
| 20260510180049 | 13 | 57 | 8.0 | 29.0 | 0.00 | 0.00 | 0.00 | 60 | 1013.5 |
| 20260510175536 | 13 | 34 | 12.9 | 29.0 | 0.00 | 0.00 | 0.00 | 60 | 1013.4 |
| 20260510175037 | 13 | 31 | 11.3 | 29.0 | 0.00 | 0.00 | 0.00 | 59 | 1013.4 |
| 20260510174555 | 13 | 70 | 9.7 | 29.0 | 0.00 | 0.00 | 0.00 | 59 | 1013.5 |
| 20260510174040 | 14 | 47 | 9.7 | 25.7 | 0.00 | 0.00 | 0.00 | 59 | 1013.5 |
| 20260510173539 | 14 | 55 | 9.7 | 24.1 | 0.00 | 0.00 | 0.00 | 60 | 1013.5 |
| 20260510173055 | 14 | 41 | 11.3 | 24.1 | 0.00 | 0.00 | 0.00 | 60 | 1013.4 |
| 20260510172541 | 14 | 49 | 14.5 | 24.1 | 0.00 | 0.00 | 0.00 | 60 | 1013.4 |
| 20260510172037 | 14 | 42 | 11.3 | 29.0 | 0.00 | 0.00 | 0.00 | 60 | 1013.4 |
| 20260510171548 | 14 | 48 | 9.7 | 35.4 | 0.00 | 0.00 | 0.00 | 60 | 1013.4 |
| 20260510171036 | 14 | 24 | 14.5 | 35.4 | 0.00 | 0.00 | 0.00 | 59 | 1013.4 |
| 20260510170537 | 14 | 34 | 12.9 | 24.1 | 0.00 | 0.00 | 0.00 | 60 | 1013.5 |
| 20260510170056 | 14 | 360 | 9.7 | 29.0 | 0.00 | 0.00 | 0.00 | 59 | 1013.5 |
| 20260510165537 | 14 | 103 | 9.7 | 29.0 | 0.00 | 0.00 | 0.00 | 59 | 1013.5 |
| 20260510165038 | 15 | 71 | 11.3 | 27.4 | 0.00 | 0.00 | 0.00 | 59 | 1013.6 |
| 20260510164556 | 15 | 71 | 14.5 | 27.4 | 0.00 | 0.00 | 0.00 | 59 | 1013.7 |
| 20260510164037 | 15 | 40 | 14.5 | 29.0 | 0.00 | 0.00 | 0.00 | 59 | 1013.7 |
| 20260510163536 | 15 | 53 | 12.9 | 29.0 | 0.00 | 0.00 | 0.00 | 59 | 1013.8 |
| 20260510163049 | 15 | 12 | 9.7 | 24.1 | 0.00 | 0.00 | 0.00 | 59 | 1013.7 |
| 20260510162552 | 15 | 53 | 9.7 | 24.1 | 0.00 | 0.00 | 0.00 | 59 | 1013.7 |
| 20260510162034 | 15 | 63 | 9.7 | 29.0 | 0.00 | 0.00 | 0.00 | 59 | 1013.8 |
| 20260510161552 | 15 | 64 | 9.7 | 29.0 | 0.00 | 0.00 | 0.00 | 58 | 1013.7 |
| 20260510161036 | 15 | 32 | 9.7 | 27.4 | 0.00 | 0.00 | 0.00 | 59 | 1013.8 |
| 20260510160536 | 15 | 34 | 9.7 | 29.0 | 0.00 | 0.00 | 0.00 | 59 | 1013.9 |
| 20260510160047 | 15 | 63 | 12.9 | 29.0 | 0.00 | 0.00 | 0.00 | 58 | 1013.9 |
| 20260510155536 | 15 | 46 | 12.9 | 32.2 | 0.00 | 0.00 | 0.00 | 58 | 1013.9 |
| 20260510155033 | 15 | 36 | 12.9 | 32.2 | 0.00 | 0.00 | 0.00 | 58 | 1014.0 |
| 20260510154553 | 15 | 44 | 16.1 | 32.2 | 0.00 | 0.00 | 0.00 | 58 | 1014.1 |
| 20260510154036 | 15 | 19 | 11.3 | 32.2 | 0.00 | 0.00 | 0.00 | 59 | 1013.9 |
| 20260510153535 | 15 | 37 | 16.1 | 32.2 | 0.00 | 0.00 | 0.00 | 59 | 1014.1 |
| 20260510153049 | 15 | 38 | 11.3 | 30.6 | 0.00 | 0.00 | 0.00 | 59 | 1014.0 |
| 20260510152536 | 15 | 52 | 14.5 | 30.6 | 0.00 | 0.00 | 0.00 | 59 | 1014.1 |
| 20260510152033 | 15 | 25 | 14.5 | 27.4 | 0.00 | 0.00 | 0.00 | 59 | 1014.1 |
| 20260510151553 | 15 | 344 | 9.7 | 27.4 | 0.00 | 0.00 | 0.00 | 59 | 1014.1 |
| 20260510151033 | 15 | 60 | 12.9 | 33.8 | 0.00 | 0.00 | 0.00 | 59 | 1014.2 |
| 20260510150537 | 15 | 62 | 12.9 | 33.8 | 0.00 | 0.00 | 0.00 | 60 | 1014.2 |
| 20260510150105 | 15 | 58 | 16.1 | 38.6 | 0.00 | 0.00 | 0.00 | 60 | 1014.2 |
| 20260510145536 | 15 | 53 | 16.1 | 38.6 | 0.00 | 0.00 | 0.00 | 60 | 1014.2 |
| 20260510145036 | 15 | 22 | 16.1 | 38.6 | 0.00 | 0.00 | 0.00 | 59 | 1014.3 |
| 20260510144607 | 15 | 63 | 16.1 | 30.6 | 0.00 | 0.00 | 0.00 | 59 | 1014.4 |
| 20260510144036 | 15 | 34 | 16.1 | 30.6 | 0.00 | 0.00 | 0.00 | 59 | 1014.2 |
| 20260510143536 | 15 | 35 | 11.3 | 29.0 | 0.00 | 0.00 | 0.00 | 59 | 1014.3 |
| 20260510143047 | 15 | 43 | 16.1 | 35.4 | 0.00 | 0.00 | 0.00 | 59 | 1014.4 |
| 20260510142536 | 15 | 20 | 14.5 | 35.4 | 0.00 | 0.00 | 0.00 | 59 | 1014.4 |
| 20260510142036 | 15 | 56 | 16.1 | 35.4 | 0.00 | 0.00 | 0.00 | 58 | 1014.4 |
| 20260510141551 | 15 | 61 | 14.5 | 33.8 | 0.00 | 0.00 | 0.00 | 58 | 1014.4 |
| 20260510141035 | 15 | 55 | 17.7 | 37.0 | 0.00 | 0.00 | 0.00 | 58 | 1014.6 |
| 20260510140538 | 15 | 56 | 16.1 | 37.0 | 0.00 | 0.00 | 0.00 | 59 | 1014.6 |
| 20260510140047 | 15 | 355 | 16.1 | 29.0 | 0.00 | 0.00 | 0.00 | 58 | 1014.7 |
| 20260510135535 | 16 | 36 | 11.3 | 30.6 | 0.00 | 0.00 | 0.00 | 58 | 1014.7 |
| 20260510135037 | 16 | 42 | 9.7 | 30.6 | 0.00 | 0.00 | 0.00 | 58 | 1014.6 |
| 20260510134548 | 16 | 58 | 16.1 | 32.2 | 0.00 | 0.00 | 0.00 | 57 | 1014.7 |
| 20260510134035 | 16 | 94 | 14.5 | 32.2 | 0.00 | 0.00 | 0.00 | 57 | 1014.8 |
| 20260510133535 | 16 | 63 | 11.3 | 27.4 | 0.00 | 0.00 | 0.00 | 56 | 1014.8 |
| 20260510133047 | 16 | 52 | 11.3 | 29.0 | 0.00 | 0.00 | 0.00 | 56 | 1014.8 |
| 20260510132536 | 16 | 35 | 9.7 | 29.0 | 0.00 | 0.00 | 0.00 | 55 | 1014.9 |
| 20260510132036 | 16 | 72 | 9.7 | 29.0 | 0.00 | 0.00 | 0.00 | 57 | 1014.9 |
| 20260510131546 | 16 | 98 | 14.5 | 32.2 | 0.00 | 0.00 | 0.00 | 56 | 1015.0 |
| 20260510131034 | 16 | 77 | 14.5 | 32.2 | 0.00 | 0.00 | 0.00 | 57 | 1015.0 |
| 20260510130536 | 16 | 72 | 14.5 | 32.2 | 0.00 | 0.00 | 0.00 | 55 | 1014.9 |
| 20260510130042 | 16 | 53 | 12.9 | 32.2 | 0.00 | 0.00 | 0.00 | 54 | 1015.0 |
| 20260510125534 | 16 | 49 | 14.5 | 37.0 | 0.00 | 0.00 | 0.00 | 55 | 1015.0 |
| 20260510125033 | 16 | 41 | 12.9 | 37.0 | 0.00 | 0.00 | 0.00 | 55 | 1015.0 |
| 20260510124549 | 16 | 51 | 14.5 | 37.0 | 0.00 | 0.00 | 0.00 | 55 | 1015.2 |
| 20260510124034 | 16 | 46 | 12.9 | 32.2 | 0.00 | 0.00 | 0.00 | 55 | 1015.2 |
| 20260510123537 | 16 | 82 | 14.5 | 25.7 | 0.00 | 0.00 | 0.00 | 54 | 1015.1 |
| 20260510123047 | 16 | 5 | 11.3 | 25.7 | 0.00 | 0.00 | 0.00 | 53 | 1015.1 |
| 20260510122536 | 16 | 90 | 11.3 | 24.1 | 0.00 | 0.00 | 0.00 | 54 | 1015.0 |
| 20260510122035 | 16 | 43 | 12.9 | 24.1 | 0.00 | 0.00 | 0.00 | 54 | 1015.1 |
| 20260510121547 | 16 | 46 | 9.7 | 20.9 | 0.00 | 0.00 | 0.00 | 55 | 1015.2 |
| 20260510121036 | 16 | 98 | 9.7 | 32.2 | 0.00 | 0.00 | 0.00 | 56 | 1015.2 |
| 20260510120536 | 16 | 48 | 11.3 | 32.2 | 0.00 | 0.00 | 0.00 | 55 | 1015.3 |
| 20260510120042 | 16 | 294 | 12.9 | 30.6 | 0.00 | 0.00 | 0.00 | 55 | 1015.4 |
| 20260510115536 | 16 | 91 | 17.7 | 30.6 | 0.00 | 0.00 | 0.00 | 55 | 1015.5 |
| 20260510115034 | 16 | 51 | 11.3 | 25.7 | 0.00 | 0.00 | 0.00 | 56 | 1015.5 |
| 20260510114603 | 16 | 35 | 9.7 | 35.4 | 0.00 | 0.00 | 0.00 | 57 | 1015.4 |
| 20260510114034 | 16 | 53 | 11.3 | 35.4 | 0.00 | 0.00 | 0.00 | 57 | 1015.5 |
| 20260510113536 | 15 | 40 | 16.1 | 33.8 | 0.00 | 0.00 | 0.00 | 57 | 1015.5 |
| 20260510113055 | 15 | 47 | 14.5 | 33.8 | 0.00 | 0.00 | 0.00 | 57 | 1015.6 |
| 20260510112534 | 15 | 63 | 16.1 | 33.8 | 0.00 | 0.00 | 0.00 | 57 | 1015.7 |
| 20260510112034 | 15 | 34 | 16.1 | 32.2 | 0.00 | 0.00 | 0.00 | 57 | 1015.7 |
| 20260510111548 | 15 | 57 | 14.5 | 32.2 | 0.00 | 0.00 | 0.00 | 58 | 1015.7 |
| 20260510111036 | 15 | 21 | 12.9 | 32.2 | 0.00 | 0.00 | 0.00 | 57 | 1015.8 |
| 20260510110535 | 15 | 26 | 16.1 | 32.2 | 0.00 | 0.00 | 0.00 | 57 | 1015.8 |
| 20260510110046 | 15 | 65 | 19.3 | 32.2 | 0.00 | 0.00 | 0.00 | 57 | 1015.9 |
| 20260510105541 | 15 | 59 | 12.9 | 35.4 | 0.00 | 0.00 | 0.00 | 59 | 1016.0 |
| 20260510105037 | 15 | 42 | 14.5 | 35.4 | 0.00 | 0.00 | 0.00 | 59 | 1015.9 |
| 20260510104556 | 15 | 15 | 17.7 | 33.8 | 0.00 | 0.00 | 0.00 | 59 | 1016.0 |
| 20260510104036 | 15 | 26 | 12.9 | 32.2 | 0.00 | 0.00 | 0.00 | 60 | 1015.9 |
| 20260510103536 | 14 | 54 | 17.7 | 32.2 | 0.00 | 0.00 | 0.00 | 60 | 1016.0 |
| 20260510103046 | 15 | 21 | 12.9 | 32.2 | 0.00 | 0.00 | 0.00 | 60 | 1016.1 |
| 20260510102536 | 15 | 71 | 11.3 | 32.2 | 0.00 | 0.00 | 0.00 | 59 | 1016.0 |
| 20260510102037 | 15 | 45 | 12.9 | 32.2 | 0.00 | 0.00 | 0.00 | 59 | 1016.1 |
| 20260510101548 | 15 | 57 | 12.9 | 33.8 | 0.00 | 0.00 | 0.00 | 59 | 1016.3 |
| 20260510101039 | 15 | 71 | 14.5 | 33.8 | 0.00 | 0.00 | 0.00 | 60 | 1016.2 |
| 20260510100536 | 15 | 48 | 16.1 | 33.8 | 0.00 | 0.00 | 0.00 | 60 | 1016.3 |
| 20260510100059 | 15 | 51 | 20.9 | 33.8 | 0.00 | 0.00 | 0.00 | 60 | 1016.3 |
| 20260510095536 | 14 | 103 | 17.7 | 33.8 | 0.00 | 0.00 | 0.00 | 61 | 1016.4 |
| 20260510095036 | 14 | 329 | 16.1 | 38.6 | 0.00 | 0.00 | 0.00 | 62 | 1016.4 |
| 20260510094552 | 13 | 49 | 17.7 | 38.6 | 0.00 | 0.00 | 0.00 | 63 | 1016.4 |
| 20260510094036 | 13 | 85 | 12.9 | 46.7 | 0.00 | 0.00 | 0.00 | 65 | 1016.4 |
| 20260510093535 | 13 | 43 | 17.7 | 46.7 | 0.00 | 0.00 | 0.00 | 65 | 1016.4 |
| 20260510093045 | 13 | 55 | 14.5 | 35.4 | 0.00 | 0.00 | 0.00 | 66 | 1016.4 |
| 20260510092534 | 13 | 74 | 17.7 | 35.4 | 0.00 | 0.00 | 0.00 | 65 | 1016.4 |
| 20260510092033 | 13 | 61 | 14.5 | 33.8 | 0.00 | 0.00 | 0.00 | 66 | 1016.4 |
| 20260510091543 | 12 | 59 | 14.5 | 29.0 | 0.00 | 0.00 | 0.00 | 68 | 1016.4 |
| 20260510091033 | 12 | 13 | 16.1 | 29.0 | 0.00 | 0.00 | 0.00 | 68 | 1016.6 |
| 20260510090536 | 12 | 355 | 11.3 | 29.0 | 0.00 | 0.00 | 0.00 | 70 | 1016.6 |
| 20260510090049 | 12 | 52 | 14.5 | 29.0 | 0.00 | 0.00 | 0.00 | 70 | 1016.5 |
| 20260510085537 | 12 | 69 | 11.3 | 25.7 | 0.00 | 0.00 | 0.00 | 70 | 1016.5 |
| 20260510085037 | 12 | 15 | 12.9 | 27.4 | 0.00 | 0.00 | 0.00 | 71 | 1016.5 |
| 20260510084546 | 12 | 38 | 14.5 | 32.2 | 0.00 | 0.00 | 0.00 | 71 | 1016.6 |
| 20260510084036 | 12 | 44 | 11.3 | 32.2 | 0.00 | 0.00 | 0.00 | 71 | 1016.5 |
| 20260510083536 | 12 | 38 | 14.5 | 32.2 | 0.00 | 0.00 | 0.00 | 71 | 1016.5 |
| 20260510083047 | 12 | 60 | 14.5 | 32.2 | 0.00 | 0.00 | 0.00 | 71 | 1016.6 |
| 20260510082537 | 11 | 55 | 11.3 | 35.4 | 0.00 | 0.00 | 0.00 | 71 | 1016.6 |
| 20260510082036 | 11 | 329 | 19.3 | 35.4 | 0.00 | 0.00 | 0.00 | 71 | 1016.6 |
| 20260510081550 | 11 | 5 | 14.5 | 30.6 | 0.00 | 0.00 | 0.00 | 72 | 1016.6 |
| 20260510081035 | 11 | 46 | 17.7 | 40.2 | 0.00 | 0.00 | 0.00 | 72 | 1016.6 |
| 20260510080534 | 11 | 42 | 16.1 | 40.2 | 0.00 | 0.00 | 0.00 | 72 | 1016.5 |
| 20260510080051 | 11 | 64 | 14.5 | 35.4 | 0.00 | 0.00 | 0.00 | 72 | 1016.6 |
| 20260510075537 | 11 | 69 | 12.9 | 35.4 | 0.00 | 0.00 | 0.00 | 73 | 1016.6 |
| 20260510075033 | 11 | 64 | 16.1 | 35.4 | 0.00 | 0.00 | 0.00 | 72 | 1016.6 |
| 20260510074559 | 11 | 80 | 14.5 | 30.6 | 0.00 | 0.00 | 0.00 | 73 | 1016.5 |
| 20260510074034 | 11 | 23 | 14.5 | 33.8 | 0.00 | 0.00 | 0.00 | 73 | 1016.6 |
| 20260510073533 | 11 | 61 | 14.5 | 33.8 | 0.00 | 0.00 | 0.00 | 73 | 1016.4 |
| 20260510073053 | 11 | 51 | 11.3 | 33.8 | 0.00 | 0.00 | 0.00 | 73 | 1016.5 |
| 20260510072536 | 11 | 34 | 11.3 | 32.2 | 0.00 | 0.00 | 0.00 | 73 | 1016.5 |
| 20260510072038 | 11 | 360 | 16.1 | 32.2 | 0.00 | 0.00 | 0.00 | 73 | 1016.5 |
| 20260510071551 | 11 | 36 | 16.1 | 32.2 | 0.00 | 0.00 | 0.00 | 73 | 1016.4 |
| 20260510071036 | 11 | 23 | 16.1 | 37.0 | 0.00 | 0.00 | 0.00 | 73 | 1016.4 |
| 20260510070536 | 11 | 49 | 14.5 | 37.0 | 0.00 | 0.00 | 0.00 | 74 | 1016.4 |
| 20260510070105 | 10 | 64 | 11.3 | 30.6 | 0.00 | 0.00 | 0.00 | 74 | 1016.4 |
| 20260510065537 | 10 | 42 | 11.3 | 30.6 | 0.00 | 0.00 | 0.00 | 74 | 1016.4 |
| 20260510065035 | 10 | 33 | 14.5 | 35.4 | 0.00 | 0.00 | 0.00 | 75 | 1016.3 |
| 20260510064555 | 10 | 26 | 16.1 | 35.4 | 0.00 | 0.00 | 0.00 | 75 | 1016.3 |
| 20260510064033 | 10 | 37 | 16.1 | 30.6 | 0.00 | 0.00 | 0.00 | 75 | 1016.5 |
| 20260510063536 | 10 | 22 | 14.5 | 29.0 | 0.00 | 0.00 | 0.00 | 75 | 1016.4 |
| 20260510063046 | 10 | 43 | 14.5 | 29.0 | 0.00 | 0.00 | 0.00 | 75 | 1016.4 |
| 20260510062534 | 10 | 347 | 12.9 | 30.6 | 0.00 | 0.00 | 0.00 | 75 | 1016.3 |
| 20260510062036 | 10 | 17 | 14.5 | 30.6 | 0.00 | 0.00 | 0.00 | 75 | 1016.4 |
| 20260510061552 | 10 | 58 | 12.9 | 30.6 | 0.00 | 0.00 | 0.00 | 76 | 1016.3 |
| 20260510061037 | 10 | 29 | 12.9 | 25.7 | 0.00 | 0.00 | 0.00 | 76 | 1016.3 |
| 20260510060537 | 10 | 240 | 8.0 | 24.1 | 0.00 | 0.00 | 0.00 | 76 | 1016.3 |
| 20260510060052 | 10 | 34 | 11.3 | 24.1 | 0.00 | 0.00 | 0.00 | 76 | 1016.2 |
| 20260510055536 | 10 | 45 | 14.5 | 29.0 | 0.00 | 0.00 | 0.00 | 76 | 1016.2 |
| 20260510055035 | 10 | 58 | 11.3 | 29.0 | 0.00 | 0.00 | 0.00 | 77 | 1016.2 |
| 20260510054549 | 10 | 46 | 11.3 | 25.7 | 0.00 | 0.00 | 0.00 | 76 | 1016.2 |
| 20260510054037 | 10 | 129 | 12.9 | 25.7 | 0.00 | 0.00 | 0.00 | 76 | 1016.2 |
| 20260510053536 | 10 | 47 | 11.3 | 37.0 | 0.00 | 0.00 | 0.00 | 76 | 1016.3 |
| 20260510053047 | 10 | 59 | 12.9 | 37.0 | 0.00 | 0.00 | 0.00 | 76 | 1016.2 |
| 20260510052536 | 10 | 22 | 9.7 | 27.4 | 0.00 | 0.00 | 0.00 | 76 | 1016.3 |
| 20260510052036 | 10 | 22 | 11.3 | 27.4 | 0.00 | 0.00 | 0.00 | 76 | 1016.3 |
| 20260510051548 | 10 | 54 | 11.3 | 27.4 | 0.00 | 0.00 | 0.00 | 76 | 1016.3 |
| 20260510051036 | 10 | 26 | 9.7 | 33.8 | 0.00 | 0.00 | 0.00 | 76 | 1016.3 |
| 20260510050537 | 10 | 9 | 9.7 | 33.8 | 0.00 | 0.00 | 0.00 | 76 | 1016.3 |
| 20260510050053 | 10 | 24 | 11.3 | 24.1 | 0.00 | 0.00 | 0.00 | 76 | 1016.3 |
| 20260510045536 | 10 | 59 | 9.7 | 24.1 | 0.00 | 0.00 | 0.00 | 75 | 1016.4 |
| 20260510045035 | 10 | 62 | 6.4 | 27.4 | 0.00 | 0.00 | 0.00 | 75 | 1016.4 |
| 20260510044548 | 10 | 61 | 9.7 | 27.4 | 0.00 | 0.00 | 0.00 | 75 | 1016.3 |
| 20260510044036 | 10 | 58 | 9.7 | 20.9 | 0.00 | 0.00 | 0.00 | 75 | 1016.3 |
| 20260510043536 | 10 | 32 | 8.0 | 22.5 | 0.00 | 0.00 | 0.00 | 74 | 1016.2 |
| 20260510043042 | 10 | 27 | 11.3 | 22.5 | 0.00 | 0.00 | 0.00 | 75 | 1016.2 |
| 20260510042537 | 10 | 320 | 9.7 | 22.5 | 0.00 | 0.00 | 0.00 | 74 | 1016.2 |
| 20260510042039 | 10 | 33 | 6.4 | 22.5 | 0.00 | 0.00 | 0.00 | 74 | 1016.3 |
| 20260510041556 | 10 | 16 | 8.0 | 22.5 | 0.00 | 0.00 | 0.00 | 73 | 1016.3 |
| 20260510041037 | 11 | 45 | 8.0 | 19.3 | 0.00 | 0.00 | 0.00 | 73 | 1016.4 |
| 20260510040540 | 11 | 15 | 6.4 | 24.1 | 0.00 | 0.00 | 0.00 | 73 | 1016.4 |
| 20260510040052 | 11 | 42 | 8.0 | 24.1 | 0.00 | 0.00 | 0.00 | 73 | 1016.4 |
| 20260510035537 | 11 | 42 | 11.3 | 22.5 | 0.00 | 0.00 | 0.00 | 72 | 1016.4 |
| 20260510035036 | 11 | 87 | 11.3 | 20.9 | 0.00 | 0.00 | 0.00 | 72 | 1016.5 |
| 20260510034549 | 11 | 26 | 6.4 | 22.5 | 0.00 | 0.00 | 0.00 | 71 | 1016.4 |
| 20260510034036 | 11 | 60 | 9.7 | 22.5 | 0.00 | 0.00 | 0.00 | 71 | 1016.5 |
| 20260510033535 | 11 | 71 | 9.7 | 22.5 | 0.00 | 0.00 | 0.00 | 71 | 1016.4 |
| 20260510033103 | 11 | 38 | 9.7 | 24.1 | 0.00 | 0.00 | 0.00 | 70 | 1016.5 |
| 20260510032538 | 11 | 67 | 9.7 | 24.1 | 0.00 | 0.00 | 0.00 | 69 | 1016.6 |
| 20260510032036 | 11 | 41 | 9.7 | 24.1 | 0.00 | 0.00 | 0.00 | 68 | 1016.7 |
| 20260510031543 | 11 | 26 | 9.7 | 20.9 | 0.00 | 0.00 | 0.00 | 67 | 1016.7 |
| 20260510031037 | 11 | 46 | 9.7 | 20.9 | 0.00 | 0.00 | 0.00 | 66 | 1016.7 |
| 20260510030537 | 11 | 42 | 9.7 | 20.9 | 0.00 | 0.00 | 0.00 | 65 | 1016.8 |
| 20260510030048 | 12 | 41 | 8.0 | 20.9 | 0.00 | 0.00 | 0.00 | 64 | 1016.8 |
| 20260510025537 | 12 | 45 | 9.7 | 20.9 | 0.00 | 0.00 | 0.00 | 63 | 1016.8 |
| 20260510025037 | 12 | 340 | 6.4 | 20.9 | 0.00 | 0.00 | 0.00 | 62 | 1016.7 |
| 20260510024545 | 12 | 5 | 9.7 | 20.9 | 0.00 | 0.00 | 0.00 | 61 | 1016.8 |
| 20260510024037 | 12 | 344 | 6.4 | 19.3 | 0.00 | 0.00 | 0.00 | 61 | 1016.8 |
| 20260510023537 | 12 | 39 | 8.0 | 19.3 | 0.00 | 0.00 | 0.00 | 60 | 1016.8 |
| 20260510023047 | 12 | 94 | 6.4 | 19.3 | 0.00 | 0.00 | 0.00 | 60 | 1016.8 |
| 20260510022536 | 12 | 13 | 8.0 | 20.9 | 0.00 | 0.00 | 0.00 | 60 | 1016.8 |
| 20260510022036 | 12 | 34 | 4.8 | 25.7 | 0.00 | 0.00 | 0.00 | 60 | 1016.5 |
| 20260510021547 | 12 | 57 | 12.9 | 25.7 | 0.00 | 0.00 | 0.00 | 59 | 1016.4 |
| 20260510021035 | 13 | 52 | 8.0 | 24.1 | 0.00 | 0.00 | 0.00 | 59 | 1016.4 |
| 20260510020536 | 13 | 27 | 8.0 | 24.1 | 0.00 | 0.00 | 0.00 | 59 | 1016.4 |
| 20260510020045 | 13 | 21 | 8.0 | 22.5 | 0.00 | 0.00 | 0.00 | 58 | 1016.4 |
| 20260510015536 | 13 | 21 | 11.3 | 22.5 | 0.00 | 0.00 | 0.00 | 58 | 1016.4 |
| 20260510015038 | 13 | 30 | 9.7 | 22.5 | 0.00 | 0.00 | 0.00 | 57 | 1016.4 |
| 20260510014543 | 13 | 59 | 8.0 | 20.9 | 0.00 | 0.00 | 0.00 | 56 | 1016.4 |
| 20260510014033 | 13 | 5 | 6.4 | 22.5 | 0.00 | 0.00 | 0.00 | 56 | 1016.4 |
| 20260510013534 | 13 | 5 | 9.7 | 22.5 | 0.00 | 0.00 | 0.00 | 55 | 1016.5 |
| 20260510013044 | 13 | 65 | 8.0 | 22.5 | 0.00 | 0.00 | 0.00 | 55 | 1016.5 |
| 20260510012535 | 13 | 44 | 9.7 | 22.5 | 0.00 | 0.00 | 0.00 | 54 | 1016.4 |
| 20260510012036 | 13 | 57 | 6.4 | 19.3 | 0.00 | 0.00 | 0.00 | 54 | 1016.4 |
| 20260510011541 | 13 | 17 | 6.4 | 19.3 | 0.00 | 0.00 | 0.00 | 54 | 1016.4 |
| 20260510011037 | 13 | 60 | 8.0 | 19.3 | 0.00 | 0.00 | 0.00 | 53 | 1016.6 |
| 20260510010536 | 13 | 40 | 4.8 | 17.7 | 0.00 | 0.00 | 0.00 | 53 | 1016.6 |
| 20260510010058 | 13 | 67 | 4.8 | 22.5 | 0.00 | 0.00 | 0.00 | 53 | 1016.6 |
| 20260510005536 | 13 | 54 | 6.4 | 22.5 | 0.00 | 0.00 | 0.00 | 53 | 1016.6 |
| 20260510005037 | 13 | 41 | 11.3 | 22.5 | 0.00 | 0.00 | 0.00 | 52 | 1016.5 |
| 20260510004546 | 14 | 63 | 11.3 | 22.5 | 0.00 | 0.00 | 0.00 | 52 | 1016.6 |
| 20260510004036 | 14 | 63 | 11.3 | 22.5 | 0.00 | 0.00 | 0.00 | 51 | 1016.5 |
| 20260510003534 | 14 | 98 | 8.0 | 20.9 | 0.00 | 0.00 | 0.00 | 51 | 1016.6 |
| 20260510003058 | 14 | 57 | 11.3 | 22.5 | 0.00 | 0.00 | 0.00 | 50 | 1016.5 |
| 20260510002535 | 14 | 85 | 6.4 | 22.5 | 0.00 | 0.00 | 0.00 | 51 | 1016.5 |
| 20260510002036 | 14 | 25 | 8.0 | 22.5 | 0.00 | 0.00 | 0.00 | 50 | 1016.5 |
| 20260510001550 | 14 | 41 | 6.4 | 17.7 | 0.00 | 0.00 | 0.00 | 50 | 1016.5 |
| 20260510001037 | 14 | 24 | 6.4 | 19.3 | 0.00 | 0.00 | 0.00 | 50 | 1016.6 |
| 20260510000534 | 14 | 51 | 6.4 | 22.5 | 0.00 | 0.00 | 0.00 | 49 | 1016.6 |
| 20260510000052 | 15 | 58 | 9.7 | 22.5 | 0.00 | 0.00 | 0.00 | 49 | 1016.6 |
| 20260509235534 | 15 | 62 | 6.4 | 22.5 | 0.00 | 0.00 | 0.00 | 49 | 1016.6 |
| 20260509235035 | 15 | 59 | 6.4 | 19.3 | 0.00 | 0.00 | 0.00 | 49 | 1016.6 |
| 20260509234603 | 15 | 45 | 4.8 | 16.1 | 0.00 | 0.00 | 0.00 | 49 | 1016.6 |
| 20260509234035 | 15 | 52 | 6.4 | 16.1 | 0.00 | 0.00 | 0.00 | 49 | 1016.5 |
| 20260509233537 | 15 | 71 | 4.8 | 16.1 | 0.00 | 0.00 | 0.00 | 49 | 1016.5 |
| 20260509233045 | 15 | 49 | 4.8 | 14.5 | 0.00 | 0.00 | 0.00 | 49 | 1016.6 |
| 20260509232534 | 15 | 33 | 8.0 | 17.7 | 0.00 | 0.00 | 0.00 | 49 | 1016.5 |
| 20260509232036 | 15 | 65 | 6.4 | 17.7 | 0.00 | 0.00 | 0.00 | 49 | 1016.5 |
| 20260509231546 | 15 | 26 | 6.4 | 17.7 | 0.00 | 0.00 | 0.00 | 49 | 1016.5 |
| 20260509231035 | 15 | 69 | 8.0 | 19.3 | 0.00 | 0.00 | 0.00 | 49 | 1016.5 |
| 20260509230534 | 15 | 68 | 8.0 | 19.3 | 0.00 | 0.00 | 0.00 | 49 | 1016.5 |
| 20260509230048 | 15 | 63 | 4.8 | 16.1 | 0.00 | 0.00 | 0.00 | 49 | 1016.4 |
| 20260509225539 | 15 | 69 | 4.8 | 16.1 | 0.00 | 0.00 | 0.00 | 50 | 1016.4 |
| 20260509225035 | 15 | 42 | 3.2 | 12.9 | 0.00 | 0.00 | 0.00 | 50 | 1016.3 |
| 20260509224549 | 16 | 16 | 4.8 | 14.5 | 0.00 | 0.00 | 0.00 | 50 | 1016.3 |
| 20260509224036 | 16 | 44 | 6.4 | 17.7 | 0.00 | 0.00 | 0.00 | 50 | 1016.3 |
| 20260509223536 | 16 | 40 | 6.4 | 19.3 | 0.00 | 0.00 | 0.00 | 49 | 1016.3 |
| 20260509223049 | 16 | 50 | 8.0 | 19.3 | 0.00 | 0.00 | 0.00 | 49 | 1016.3 |
| 20260509222536 | 16 | 49 | 6.4 | 19.3 | 0.00 | 0.00 | 0.00 | 50 | 1016.2 |
| 20260509222036 | 16 | 16 | 4.8 | 17.7 | 0.00 | 0.00 | 0.00 | 51 | 1016.4 |
| 20260509221550 | 16 | 44 | 4.8 | 19.3 | 0.00 | 0.00 | 0.00 | 51 | 1016.3 |
| 20260509221035 | 16 | 84 | 9.7 | 19.3 | 0.00 | 0.00 | 0.00 | 51 | 1016.1 |
| 20260509220535 | 16 | 42 | 8.0 | 19.3 | 0.00 | 0.00 | 0.00 | 52 | 1016.2 |
| 20260509220100 | 16 | 64 | 9.7 | 19.3 | 0.00 | 0.00 | 0.00 | 53 | 1016.1 |
| 20260509215535 | 16 | 42 | 4.8 | 14.5 | 0.00 | 0.00 | 0.00 | 54 | 1016.2 |
| 20260509215038 | 16 | 63 | 6.4 | 19.3 | 0.00 | 0.00 | 0.00 | 53 | 1016.1 |
| 20260509214547 | 17 | 92 | 6.4 | 19.3 | 0.00 | 0.00 | 0.00 | 53 | 1016.1 |
| 20260509214036 | 17 | 78 | 9.7 | 19.3 | 0.00 | 0.00 | 0.00 | 53 | 1016.2 |
| 20260509213537 | 17 | 58 | 6.4 | 14.5 | 0.00 | 0.00 | 0.00 | 55 | 1016.1 |
| 20260509213050 | 17 | 71 | 4.8 | 12.9 | 0.00 | 0.00 | 0.00 | 56 | 1016.1 |
| 20260509212535 | 17 | 37 | 4.8 | 14.5 | 0.00 | 0.00 | 0.00 | 56 | 1016.2 |
| 20260509212035 | 17 | 46 | 6.4 | 14.5 | 0.00 | 0.00 | 0.00 | 56 | 1016.1 |
| 20260509211554 | 17 | 55 | 4.8 | 11.3 | 0.00 | 0.00 | 0.00 | 57 | 1016.1 |
| 20260509211033 | 17 | 72 | 3.2 | 11.3 | 0.00 | 0.00 | 0.00 | 57 | 1016.2 |
| 20260509210538 | 17 | 61 | 4.8 | 11.3 | 0.00 | 0.00 | 0.00 | 58 | 1016.1 |
| 20260509210047 | 17 | 59 | 3.2 | 8.0 | 0.00 | 0.00 | 0.00 | 59 | 1016.1 |
| 20260509205536 | 17 | 74 | 1.6 | 6.4 | 0.00 | 0.00 | 0.00 | 60 | 1016.0 |
| 20260509205036 | 17 | 63 | 1.6 | 6.4 | 0.00 | 0.00 | 0.00 | 60 | 1016.0 |
| 20260509204557 | 17 | 53 | 1.6 | 6.4 | 0.00 | 0.00 | 0.00 | 60 | 1015.9 |
| 20260509204036 | 17 | 46 | 1.6 | 4.8 | 0.00 | 0.00 | 0.00 | 60 | 1015.8 |
| 20260509203536 | 17 | 54 | 0.0 | 6.4 | 0.00 | 0.00 | 0.00 | 59 | 1015.7 |
| 20260509203047 | 17 | 54 | 3.2 | 6.4 | 0.00 | 0.00 | 0.00 | 59 | 1015.5 |
| 20260509202536 | 17 | 0 | 1.6 | 6.4 | 0.00 | 0.00 | 0.00 | 59 | 1015.6 |
| 20260509202036 | 17 | 40 | 3.2 | 6.4 | 0.00 | 0.00 | 0.00 | 59 | 1015.5 |
| 20260509201550 | 17 | 57 | 1.6 | 6.4 | 0.00 | 0.00 | 0.00 | 60 | 1015.5 |
| 20260509201037 | 17 | 42 | 3.2 | 6.4 | 0.00 | 0.00 | 0.00 | 60 | 1015.4 |
| 20260509200533 | 18 | 28 | 1.6 | 6.4 | 0.00 | 0.00 | 0.00 | 60 | 1015.4 |
| 20260509200045 | 18 | 36 | 0.0 | 6.4 | 0.00 | 0.00 | 0.00 | 60 | 1015.5 |
| 20260509195534 | 18 | 34 | 0.0 | 4.8 | 0.00 | 0.00 | 0.00 | 60 | 1015.4 |
| 20260509195033 | 18 | 0 | 0.0 | 0.0 | 0.00 | 0.00 | 0.00 | 60 | 1015.4 |
| 20260509194545 | 18 | 0 | 0.0 | 0.0 | 0.00 | 0.00 | 0.00 | 60 | 1015.4 |
| 20260509194035 | 18 | 0 | 0.0 | 0.0 | 0.00 | 0.00 | 0.00 | 60 | 1015.3 |
| 20260509193537 | 18 | 0 | 0.0 | 0.0 | 0.00 | 0.00 | 0.00 | 60 | 1015.2 |
| 20260509193049 | 18 | 0 | 0.0 | 0.0 | 0.00 | 0.00 | 0.00 | 59 | 1015.1 |